{"data":{"norad_id":66568,"epoch":"2026-09-20T20:47:53.077920Z","epoch_age_seconds":57501,"freshness":"FRESH","line1":"1 66568U 25268M   26263.86658655  .00004254  00000+0  16400-3 0  9990","line2":"2 66568  43.0026 324.4499 0001891 271.9604  88.1031 15.27588840 47810","mean_motion":15.2758884,"eccentricity":0.0001891,"inclination_deg":43.0026,"raan_deg":324.4499,"arg_perigee_deg":271.9604,"mean_anomaly_deg":88.1031,"bstar":0.000164,"rev_number":4781,"period_min":94.266203201642,"perigee_km":481.72518074185,"apogee_km":484.32007131241,"semimajor_km":6861.1596260271,"source":"CELESTRAK","updated_at":"2026-09-21T09:00:35.971808Z"}}